Leeming, United Kingdom

5:22 PM BST on May 22, 2017 (GMT +0100)
Leeming Air Base

Weather History for EGXE - December, 2013

Change the Weather History Date:

Sunday, December 1, 2013

  Actual Average Record
Temperature  
Mean Temperature 36 °F -  
Max Temperature 46 °F 44 °F - ()
Min Temperature 26 °F 34 °F - ()
Degree Days  
Heating Degree Days 29    
Moisture  
Dew Point 37 °F    
Average Humidity 94    
Maximum Humidity 100    
Minimum Humidity 78    
Precipitation  
Precipitation 0.00 in 0.07 in - ()
Sea Level Pressure  
Sea Level Pressure 30.49 in    
Wind  
Wind Speed 7 mph ()    
Max Wind Speed 18 mph    
Max Gust Speed -    
Visibility 5.9 miles    
Events Fog    
T = Trace of Precipitation, MM = Missing Value Source: Averaged Metar Reports

Daily Weather History Graph

Daily Weather History Graph

Search for Another Location

Airport or City:

Trip Planner

Search our weather history database for the weather conditions in past years. The results will help you decide how hot, cold, wet, or windy it might be!

Date:

Astronomy

Dec. 01, 2013 Rise Set
Actual Time 8:03 AM GMT 3:46 PM GMT
Civil Twilight 7:20 AM GMT 4:29 PM GMT
Nautical Twilight 6:35 AM GMT 5:14 PM GMT
Astronomical Twilight 5:52 AM GMT 5:57 PM GMT
Moon 5:50 AM GMT (12/1) 2:57 PM GMT (12/1)
Length of Visible Light 9h 08m
Length of Day
7h 43m
Waning Crescent, 3% of the Moon is Illuminated
Dec 1
Waning Crescent
Dec 3
New
Dec 9
First Quarter
Dec 17
Full
Dec 25
Last Quarter

Hourly Weather History & Observations

Time (GMT) Temp. Windchill Dew Point Humidity Pressure Visibility Wind Dir Wind Speed Gust Speed Precip Events Conditions
12:00 AM 41 °F - 36 °F 78% 30.39 in 16 mi Calm Calm - -  
12:50 AM 39.2 °F 29.8 °F 35.6 °F 87% 30.39 in 6.2 mi NNW 18.4 mph - N/A   Unknown
1:50 AM 33.8 °F 22.8 °F 32.0 °F 93% 30.39 in 6.2 mi NNW 18.4 mph - N/A   Partly Cloudy
2:50 AM 35.6 °F 25.2 °F 33.8 °F 93% 30.39 in 6.2 mi NNW 18.4 mph - N/A   Partly Cloudy
3:00 AM 36 °F - 34 °F 88% 30.40 in 14 mi NNW 18.4 mph - -   Scattered Clouds
3:50 AM 30.2 °F 18.1 °F 30.2 °F 100% 30.39 in 6.2 mi NNW 18.4 mph - N/A   Unknown
4:50 AM 28.4 °F - 28.4 °F 100% 30.39 in 6.2 mi SSE 2.3 mph - N/A   Unknown
5:50 AM 32.0 °F 28.7 °F 32.0 °F 100% 30.39 in 6.2 mi SSE 3.5 mph - N/A   Unknown
6:00 AM 33 °F - 33 °F 97% 30.41 in 8 mi SSE 3.5 mph - -  
6:50 AM 28.4 °F - 28.4 °F 100% 30.42 in 0.1 mi ESE 1.2 mph - N/A Fog Fog
7:50 AM 26.6 °F - 26.6 °F 100% 30.42 in 3.7 mi Calm Calm - N/A   Unknown
8:50 AM 28.4 °F - 28.4 °F 100% 30.45 in 3.1 mi North 1.2 mph - N/A   Scattered Clouds
9:00 AM 28 °F - 28 °F 100% 30.48 in 3 mi North 1.2 mph - - Fog Fog
9:50 AM 33.8 °F - 33.8 °F 100% 30.48 in 5.6 mi WSW 1.2 mph - N/A   Mostly Cloudy
10:50 AM 39.2 °F - 39.2 °F 100% 30.51 in 6.2 mi East 1.2 mph - N/A   Overcast
11:50 AM 42.8 °F - 41.0 °F 93% 30.48 in 6.2 mi Calm Calm - N/A   Overcast
12:00 PM 43 °F - 42 °F 93% 30.51 in 12 mi Calm Calm - -   Overcast
12:50 PM 46.4 °F - 42.8 °F 87% 30.51 in 6.2 mi South 2.3 mph - N/A   Overcast
1:50 PM 46.4 °F - 44.6 °F 93% 30.51 in 6.2 mi WSW 1.2 mph - N/A   Overcast
2:50 PM 46.4 °F 44.3 °F 44.6 °F 93% 30.51 in 6.2 mi NW 4.6 mph - N/A   Mostly Cloudy
3:00 PM 46 °F - 44 °F 89% 30.52 in 9 mi NW 4.6 mph - -   Mostly Cloudy
3:50 PM 41.0 °F - 39.2 °F 93% 30.51 in 5.0 mi NNE 1.2 mph - N/A   Mist
4:50 PM 39.2 °F - 37.4 °F 93% 30.54 in 0.6 mi North 1.2 mph - N/A   Mostly Cloudy
5:50 PM 42.8 °F - 41.0 °F 93% 30.54 in 4.3 mi WSW 1.2 mph - N/A   Overcast
6:00 PM 42 °F - 41 °F 95% 30.57 in 4 mi WSW 1.2 mph - -   Mist
6:50 PM 41.0 °F - 41.0 °F 100% 30.57 in 4.3 mi Calm Calm - N/A   Overcast
7:50 PM 44.6 °F 41.4 °F 41.0 °F 87% 30.57 in 6.2 mi East 5.8 mph - N/A   Overcast
8:50 PM 42.8 °F - 41.0 °F 93% 30.57 in 5.6 mi SW 2.3 mph - N/A   Haze
9:00 PM 42 °F - 40 °F 90% 30.60 in 6 mi SW 2.3 mph - -   Mist
9:50 PM 41.0 °F - 41.0 °F 100% 30.60 in 5.0 mi West 2.3 mph - N/A   Overcast
10:50 PM 41.0 °F - 39.2 °F 93% 30.60 in 3.1 mi West 2.3 mph - N/A   Overcast
11:50 PM 41.0 °F - 39.2 °F 93% 30.60 in 3.1 mi West 2.3 mph - N/A   Mostly Cloudy